Jesup, GA

11:48 PM EDT on July 23, 2017 (GMT -0400)
Jesup-Wayne County

Weather History for KJES - April, 2014

Change the Weather History Date:

Wednesday, April 16, 2014

  Actual Average (KLHW) Record (KLHW)
Temperature  
Mean Temperature 50 °F -  
Max Temperature 59 °F 79 °F 93 °F (1967)
Min Temperature 41 °F 54 °F 36 °F (2008)
Degree Days  
Heating Degree Days 15    
Moisture  
Dew Point 40 °F    
Average Humidity 74    
Maximum Humidity 93    
Minimum Humidity 55    
Precipitation  
Precipitation 0.00 in - - ()
Sea Level Pressure  
Sea Level Pressure 30.22 in    
Wind  
Wind Speed 9 mph (ENE)    
Max Wind Speed 16 mph    
Max Gust Speed 25 mph    
Visibility 10 miles    
Events      
Averages and records for this station are not official NWS values.
T = Trace of Precipitation, MM = Missing Value Source: NWS Daily Summary

Daily Weather History Graph

Daily Weather History Graph

Search for Another Location

Airport or City:

Trip Planner

Search our weather history database for the weather conditions in past years. The results will help you decide how hot, cold, wet, or windy it might be!

Date:

Astronomy

Apr. 16, 2014 Rise Set
Actual Time 6:58 AM EDT 7:57 PM EDT
Civil Twilight 6:33 AM EDT 8:22 PM EDT
Nautical Twilight 6:03 AM EDT 8:51 PM EDT
Astronomical Twilight 5:33 AM EDT 9:22 PM EDT
Moon 9:33 PM EDT (4/16) 7:48 AM EDT (4/16)
Length of Visible Light 13h 49m
Length of Day
12h 59m
Full, 98% of the Moon is Illuminated
Apr 16
Full
Apr 22
Last Quarter
Apr 29
New
May 6
First Quarter
May 14
Full

Hourly Weather History & Observations

Time (EDT) Temp. Windchill Dew Point Humidity Pressure Visibility Wind Dir Wind Speed Gust Speed Precip Events Conditions
12:15 AM 46.4 °F 42.4 °F 41.0 °F 81% 30.04 in 10.0 mi NNW 8.1 mph - N/A   Clear
12:35 AM 44.6 °F 39.7 °F 39.2 °F 81% 30.05 in 10.0 mi NNW 9.2 mph - N/A   Clear
12:55 AM 44.6 °F 39.2 °F 37.4 °F 76% 30.06 in 10.0 mi NNW 10.4 mph 17.3 mph N/A   Clear
1:15 AM 44.6 °F 40.7 °F 37.4 °F 76% 30.07 in 10.0 mi NNW 6.9 mph - N/A   Clear
1:35 AM 44.6 °F 40.7 °F 37.4 °F 76% 30.07 in 10.0 mi NNW 6.9 mph - N/A   Clear
1:55 AM 44.6 °F 40.2 °F 37.4 °F 76% 30.07 in 10.0 mi NNW 8.1 mph - N/A   Clear
2:15 AM 42.8 °F 38.0 °F 37.4 °F 81% 30.08 in 10.0 mi NNW 8.1 mph - N/A   Clear
2:35 AM 42.8 °F 38.0 °F 37.4 °F 81% 30.08 in 10.0 mi North 8.1 mph - N/A   Clear
2:55 AM 42.8 °F 38.0 °F 35.6 °F 76% 30.08 in 10.0 mi North 8.1 mph - N/A   Clear
3:15 AM 42.8 °F 38.0 °F 35.6 °F 76% 30.09 in 10.0 mi North 8.1 mph - N/A   Clear
3:35 AM 42.8 °F 38.6 °F 35.6 °F 76% 30.09 in 10.0 mi North 6.9 mph - N/A   Clear
3:55 AM 42.8 °F 38.6 °F 35.6 °F 76% 30.09 in 10.0 mi North 6.9 mph - N/A   Clear
4:15 AM 42.8 °F 38.0 °F 35.6 °F 76% 30.10 in 10.0 mi North 8.1 mph - N/A   Clear
4:35 AM 42.8 °F 39.3 °F 35.6 °F 76% 30.11 in 10.0 mi North 5.8 mph - N/A   Clear
4:55 AM 41.0 °F 35.8 °F 35.6 °F 81% 30.11 in 10.0 mi North 8.1 mph - N/A   Clear
5:15 AM 41.0 °F 36.4 °F 35.6 °F 81% 30.12 in 10.0 mi NNE 6.9 mph - N/A   Clear
5:35 AM 41.0 °F 37.1 °F 35.6 °F 81% 30.13 in 10.0 mi NNE 5.8 mph - N/A   Clear
6:15 AM 41.0 °F 35.2 °F 35.6 °F 81% 30.15 in 10.0 mi NNE 9.2 mph - N/A   Clear
6:35 AM 41.0 °F 37.1 °F 37.4 °F 87% 30.17 in 10.0 mi NNE 5.8 mph - N/A   Clear
6:55 AM 41.0 °F 35.8 °F 37.4 °F 87% 30.18 in 10.0 mi NNE 8.1 mph - N/A   Clear
7:15 AM 41.0 °F 36.4 °F 37.4 °F 87% 30.19 in 10.0 mi NE 6.9 mph - N/A   Clear
7:35 AM 41.0 °F 34.3 °F 37.4 °F 87% 30.19 in 10.0 mi NNE 11.5 mph 16.1 mph N/A   Clear
7:55 AM 42.8 °F 37.0 °F 37.4 °F 81% 30.21 in 10.0 mi NE 10.4 mph 17.3 mph N/A   Clear
8:15 AM 42.8 °F 37.0 °F 37.4 °F 81% 30.22 in 10.0 mi NE 10.4 mph 18.4 mph N/A   Clear
8:35 AM 44.6 °F 37.4 °F 35.6 °F 71% 30.23 in 10.0 mi ENE 16.1 mph 25.3 mph N/A   Clear
8:55 AM 44.6 °F 37.8 °F 35.6 °F 71% 30.23 in 10.0 mi ENE 15.0 mph 21.9 mph N/A   Clear
9:15 AM 44.6 °F 38.1 °F 35.6 °F 71% 30.24 in 10.0 mi ENE 13.8 mph 21.9 mph N/A   Clear
9:35 AM 44.6 °F 38.1 °F 35.6 °F 71% 30.24 in 10.0 mi ENE 13.8 mph - N/A   Clear
9:55 AM 46.4 °F 40.1 °F 35.6 °F 66% 30.25 in 10.0 mi ENE 15.0 mph 19.6 mph N/A   Clear
10:15 AM 46.4 °F 40.4 °F 35.6 °F 66% 30.27 in 10.0 mi East 13.8 mph 21.9 mph N/A   Clear
10:35 AM 48.2 °F - 37.4 °F 66% 30.28 in 10.0 mi ENE 12.7 mph 20.7 mph N/A   Clear
10:55 AM 50.0 °F - 37.4 °F 62% 30.29 in 10.0 mi East 11.5 mph 19.6 mph N/A   Clear
11:15 AM 50.0 °F - 37.4 °F 62% 30.29 in 10.0 mi East 10.4 mph 19.6 mph N/A   Clear
11:35 AM 51.8 °F - 41.0 °F 67% 30.29 in 10.0 mi East 8.1 mph 16.1 mph N/A   Clear
11:55 AM 51.8 °F - 41.0 °F 67% 30.29 in 10.0 mi East 11.5 mph - N/A   Clear
12:15 PM 53.6 °F - 41.0 °F 62% 30.29 in 10.0 mi ENE 11.5 mph 19.6 mph N/A   Clear
12:35 PM 53.6 °F - 41.0 °F 62% 30.29 in 10.0 mi ESE 10.4 mph 17.3 mph N/A   Clear
12:55 PM 53.6 °F - 41.0 °F 62% 30.28 in 10.0 mi East 11.5 mph - N/A   Clear
1:15 PM 55.4 °F - 42.8 °F 63% 30.28 in 10.0 mi SE 6.9 mph 17.3 mph N/A   Clear
1:35 PM 55.4 °F - 42.8 °F 63% 30.27 in 10.0 mi East 10.4 mph 16.1 mph N/A   Clear
1:55 PM 55.4 °F - 42.8 °F 63% 30.26 in 10.0 mi SE 9.2 mph 18.4 mph N/A   Clear
2:15 PM 57.2 °F - 42.8 °F 59% 30.27 in 10.0 mi ENE 10.4 mph 18.4 mph N/A   Scattered Clouds
2:35 PM 59.0 °F - 42.8 °F 55% 30.26 in 10.0 mi ENE 11.5 mph 16.1 mph N/A   Clear
2:55 PM 59.0 °F - 42.8 °F 55% 30.26 in 10.0 mi East 5.8 mph 20.7 mph N/A   Scattered Clouds
3:15 PM 59.0 °F - 44.6 °F 59% 30.26 in 10.0 mi ESE 16.1 mph 21.9 mph N/A   Scattered Clouds
3:35 PM 59.0 °F - 44.6 °F 59% 30.26 in 10.0 mi ESE 13.8 mph 20.7 mph N/A   Scattered Clouds
3:55 PM 57.2 °F - 44.6 °F 63% 30.25 in 10.0 mi East 8.1 mph 19.6 mph N/A   Mostly Cloudy
4:15 PM 55.4 °F - 44.6 °F 67% 30.26 in 10.0 mi East 15.0 mph 20.7 mph N/A   Mostly Cloudy
4:35 PM 55.4 °F - 44.6 °F 67% 30.26 in 10.0 mi ESE 13.8 mph 20.7 mph N/A   Overcast
4:55 PM 55.4 °F - 44.6 °F 67% 30.26 in 10.0 mi East 11.5 mph - N/A   Overcast
5:15 PM 55.4 °F - 44.6 °F 67% 30.26 in 10.0 mi East 11.5 mph 18.4 mph N/A   Overcast
5:35 PM 55.4 °F - 44.6 °F 67% 30.26 in 10.0 mi ESE 15.0 mph 18.4 mph N/A   Overcast
5:55 PM 55.4 °F - 44.6 °F 67% 30.26 in 10.0 mi ESE 10.4 mph - N/A   Overcast
6:15 PM 55.4 °F - 44.6 °F 67% 30.26 in 10.0 mi East 13.8 mph 23.0 mph N/A   Mostly Cloudy
6:35 PM 55.4 °F - 44.6 °F 67% 30.26 in 10.0 mi ESE 13.8 mph 20.7 mph N/A   Mostly Cloudy
6:55 PM 53.6 °F - 44.6 °F 72% 30.27 in 10.0 mi East 9.2 mph - N/A   Scattered Clouds
7:15 PM 53.6 °F - 42.8 °F 67% 30.27 in 10.0 mi East 10.4 mph - N/A   Clear
7:35 PM 51.8 °F - 42.8 °F 71% 30.28 in 10.0 mi East 11.5 mph 17.3 mph N/A   Clear
7:55 PM 51.8 °F - 42.8 °F 71% 30.28 in 10.0 mi East 8.1 mph - N/A   Clear
8:15 PM 50.0 °F - 42.8 °F 76% 30.29 in 10.0 mi East 8.1 mph - N/A   Clear
8:55 PM 50.0 °F - 44.6 °F 82% 30.29 in 10.0 mi East 6.9 mph - N/A   Clear
9:15 PM 48.2 °F - 44.6 °F 87% 30.30 in 10.0 mi East 5.8 mph - N/A   Clear
9:35 PM 46.4 °F 44.3 °F 44.6 °F 93% 30.30 in 10.0 mi East 4.6 mph - N/A   Clear
9:55 PM 46.4 °F 44.3 °F 44.6 °F 93% 30.30 in 10.0 mi East 4.6 mph - N/A   Clear
10:15 PM 46.4 °F 43.5 °F 44.6 °F 93% 30.30 in 10.0 mi ENE 5.8 mph - N/A   Clear
10:35 PM 46.4 °F 42.9 °F 44.6 °F 93% 30.30 in 10.0 mi ENE 6.9 mph - N/A   Clear
10:55 PM 46.4 °F 42.9 °F 44.6 °F 93% 30.29 in 10.0 mi ENE 6.9 mph - N/A   Clear
11:15 PM 46.4 °F 43.5 °F 44.6 °F 93% 30.30 in 10.0 mi NE 5.8 mph - N/A   Clear
11:35 PM 46.4 °F 42.9 °F 44.6 °F 93% 30.29 in 10.0 mi ENE 6.9 mph - N/A   Clear
11:50 PM 46.4 °F 43.5 °F 44.6 °F 93% 30.29 in 10.0 mi ENE 5.8 mph - N/A   Clear